GFSMW_850_spd_219.txt.gz
Wind_Speed
22 18 15 13 7 7 12 21 25 23 19 16 15 18 19 21 26 26 25 25 25 25 25 24 23 21 21 25 30 31 31 31 29 24 25 28 31 32 31 32 34 34 34
29 25 21 18 12 8 9 11 14 12 13 10 13 15 15 15 16 19 22 23 23 22 22 24 24 25 26 24 25 28 33 35 35 29 29 27 31 37 33 34 35 37 37
37 29 24 20 17 16 17 17 16 16 14 11 11 10 13 10 9 7 7 7 8 11 18 21 25 26 28 28 29 30 31 35 38 34 32 16 22 33 38 38 38 39 41
36 31 26 25 25 22 17 21 18 14 17 18 16 12 11 13 10 7 6 2 5 7 9 10 13 17 20 24 25 25 28 29 34 39 40 42 29 19 16 34 46 45 43
40 33 30 27 27 25 19 15 16 18 21 20 17 15 13 12 9 6 5 6 9 11 11 11 15 17 17 20 22 24 27 26 30 32 43 42 47 37 30 29 33 45 49
40 35 30 26 25 24 20 17 15 14 15 15 14 12 10 8 7 8 9 10 9 7 6 11 15 17 19 20 20 23 25 25 29 31 36 45 46 48 47 38 32 38 44
45 39 36 31 23 20 21 17 12 10 8 7 6 4 2 3 4 4 6 8 10 11 11 12 14 15 18 19 21 22 23 26 30 25 28 36 47 48 42 42 44 35 39
43 40 37 28 22 20 19 17 14 10 7 5 2 3 5 7 8 8 10 12 14 16 17 19 19 19 19 19 22 23 23 24 25 28 31 32 31 39 51 55 42 37 41
44 40 31 29 25 19 16 15 12 10 6 4 5 7 9 9 10 11 12 13 15 16 18 19 20 21 23 23 23 22 23 27 28 29 29 32 36 38 41 37 45 49 38
39 33 29 25 19 18 14 11 9 6 5 5 7 9 11 12 13 14 14 13 14 17 20 21 22 24 24 23 22 22 22 25 27 29 31 35 37 38 40 42 42 41 49
36 34 29 25 20 17 13 10 8 7 6 7 7 9 11 12 13 15 17 15 16 20 22 23 24 21 19 20 21 23 26 28 30 29 32 34 32 35 41 41 44 48 45
33 28 24 23 21 17 14 12 9 8 6 5 8 10 10 11 13 15 19 19 18 19 22 24 26 22 21 21 23 25 26 27 28 30 31 33 33 37 40 38 42 44 44
31 27 26 26 21 18 15 13 10 8 9 10 12 12 13 12 13 16 20 21 22 23 25 28 23 20 22 22 22 22 22 23 25 27 28 28 28 32 34 39 44 40 40
33 29 28 23 21 17 16 13 9 9 9 10 13 14 14 15 16 18 20 22 23 25 27 21 19 20 21 21 20 20 20 22 23 25 25 25 26 27 28 28 33 40 42
32 30 25 24 22 19 17 14 11 10 8 11 14 15 16 17 17 18 20 23 25 20 17 18 19 19 17 17 16 16 18 19 19 19 19 20 22 24 27 26 25 25 33
31 27 24 25 24 19 15 11 9 7 6 11 14 16 18 21 22 21 19 13 13 13 14 15 14 13 12 13 13 14 14 15 15 15 15 16 19 18 18 22 22 19 24
32 28 27 29 23 18 14 11 11 9 9 12 15 18 18 17 13 12 11 10 12 12 12 12 11 11 10 12 12 12 12 12 13 13 14 15 16 17 17 17 13 11 11
36 33 32 24 21 17 13 14 11 9 10 11 11 13 16 10 8 10 11 11 12 11 10 9 9 8 9 10 10 11 9 10 11 12 12 12 13 15 16 15 12 8 6
38 34 29 23 17 16 18 17 12 10 9 11 11 10 9 9 9 11 14 14 12 9 8 7 7 8 8 9 10 10 8 8 10 10 9 9 11 11 10 10 8 7 9
36 32 26 22 20 20 16 16 15 12 10 11 9 11 10 8 9 10 11 10 9 8 6 6 8 9 10 10 9 11 8 8 8 8 8 8 9 9 7 5 5 8 12
32 28 26 25 22 18 18 22 18 13 11 12 11 10 9 10 12 13 13 14 12 9 7 9 9 11 13 11 9 9 9 6 6 6 8 6 5 5 5 4 5 12 13
31 27 23 22 20 20 19 24 17 15 13 13 12 11 13 11 12 15 15 16 15 12 9 9 10 12 11 11 11 8 7 6 5 4 4 3 4 5 7 7 8 9 10
28 26 25 21 18 16 18 19 13 17 16 15 14 13 16 15 13 16 18 16 17 16 14 11 11 13 11 11 11 9 8 6 3 2 2 1 1 3 5 7 8 8 9
24 21 18 18 17 14 13 11 11 14 16 16 13 14 18 14 11 14 16 17 18 18 16 13 14 12 13 13 12 12 10 6 4 5 5 5 5 3 4 5 6 5 6
20 19 17 16 14 13 12 11 10 10 11 11 11 13 18 14 11 12 15 17 18 17 15 14 14 13 15 14 12 11 9 7 6 6 8 9 9 8 6 6 6 5 6
20 19 16 16 17 16 14 12 13 16 17 12 12 13 16 17 13 14 15 17 18 18 16 15 15 13 12 11 12 11 9 9 9 9 8 9 10 9 7 6 7 6 4

GFSMW_850_spd_222.txt.gz
Wind_Speed
27 23 20 18 19 20 25 30 28 29 31 32 28 26 27 29 27 25 23 23 22 22 22 22 22 22 22 21 26 28 28 30 31 29 32 32 29 30 33 32 32 33 33
29 25 22 19 18 25 28 29 28 30 32 28 28 24 24 23 27 27 25 24 22 22 23 24 24 24 24 24 24 25 29 31 30 32 32 32 33 34 36 37 38 37 37
37 30 26 23 20 22 27 27 26 27 27 23 18 19 18 20 22 22 24 22 21 23 24 25 25 24 25 27 26 27 28 28 30 29 27 10 16 21 31 40 43 42 42
35 35 31 26 24 24 25 26 25 25 21 19 17 15 15 15 14 14 12 12 11 10 9 10 14 18 21 23 22 23 23 24 26 27 28 33 35 17 15 25 35 43 46
43 40 36 33 29 28 26 23 21 17 23 20 19 18 19 16 12 11 10 9 9 10 10 10 11 14 16 17 20 21 23 25 24 28 29 28 31 40 42 35 30 33 40
45 42 39 36 35 31 29 24 22 24 24 21 19 16 16 14 11 9 10 11 12 13 13 14 14 16 17 17 18 19 20 22 24 25 22 23 30 31 32 38 41 43 41
45 47 44 41 36 33 29 25 24 27 23 20 18 16 14 12 10 10 10 11 11 11 13 15 16 18 18 19 20 21 21 22 25 26 28 30 28 25 30 38 42 37 39
41 44 45 42 37 31 27 25 26 25 22 20 17 14 12 9 6 7 8 10 12 14 16 19 20 22 23 22 23 25 26 27 25 25 27 30 31 29 30 31 31 33 36
44 48 45 38 34 32 30 27 24 21 18 15 13 10 7 6 6 6 7 9 12 14 15 16 17 18 20 22 24 23 23 23 24 26 29 30 32 34 35 35 35 31 35
41 46 42 38 34 32 29 24 20 18 15 13 9 6 5 5 6 7 8 10 11 13 15 17 18 19 19 22 22 22 23 23 23 25 27 29 31 34 36 39 40 38 36
42 49 42 37 35 32 28 23 19 17 15 11 9 8 6 6 7 8 10 11 11 13 16 18 19 22 24 25 20 19 20 22 23 24 25 26 28 30 32 34 36 38 36
50 49 45 41 38 32 26 22 19 16 13 10 9 8 8 8 9 10 12 14 15 16 17 19 22 24 27 23 20 20 21 22 22 22 23 24 26 27 27 29 32 34 36
38 45 43 39 35 30 24 21 18 15 12 10 10 11 11 12 12 13 14 15 16 17 19 20 23 26 23 20 18 18 17 18 19 20 21 22 23 25 25 25 26 27 29
47 43 38 36 33 27 24 22 20 17 15 13 13 12 12 12 12 12 13 15 17 20 22 24 23 18 17 16 16 16 17 17 17 18 19 20 21 24 26 28 28 29 29
44 45 44 37 32 28 25 25 22 18 16 14 13 12 12 11 10 11 14 17 19 19 17 14 14 15 15 14 12 12 14 15 15 15 16 17 18 20 23 26 28 29 30
39 43 41 37 34 32 31 28 23 19 16 14 12 11 11 12 14 14 14 12 12 13 12 13 14 14 12 11 11 12 13 13 13 14 14 16 17 18 20 21 22 24 28
44 47 46 41 38 37 33 29 22 17 13 12 11 9 11 13 13 11 11 13 11 13 14 15 14 12 11 9 10 11 11 11 12 14 15 16 17 18 20 21 21 21 21
43 48 46 42 40 38 34 28 22 16 12 9 8 6 8 10 9 7 5 7 10 13 14 15 14 11 8 9 10 9 9 9 11 13 14 15 16 18 20 20 20 19 19
53 54 50 46 44 38 31 25 21 15 10 8 6 5 7 8 6 5 8 9 11 12 12 10 9 10 9 10 11 11 9 9 10 11 12 13 15 16 16 15 16 16 15
50 54 49 48 44 38 32 26 22 17 13 11 7 7 8 8 8 6 8 9 10 10 9 7 7 11 11 11 12 13 12 11 10 10 11 13 14 14 12 11 12 12 12
52 51 51 50 42 35 30 27 23 20 15 18 13 7 5 5 9 10 10 10 11 12 12 8 8 10 11 12 14 14 13 11 8 9 10 10 10 11 10 9 9 9 10
52 53 51 44 36 33 30 26 24 20 21 20 15 11 7 7 8 11 11 13 14 14 14 12 10 11 12 11 15 15 14 11 9 7 7 7 9 8 7 6 6 6 7
56 53 47 38 35 32 27 23 23 28 23 21 19 14 10 8 9 11 13 15 16 14 15 15 14 13 14 14 14 15 15 13 9 6 6 6 6 6 6 5 5 4 6
51 45 40 38 34 28 25 24 28 28 23 22 21 16 11 8 8 9 13 14 16 15 16 16 16 14 14 15 15 15 14 13 9 6 5 6 5 6 6 8 7 6 3
44 39 37 34 29 25 22 23 25 25 25 24 19 16 12 9 9 11 12 13 13 15 16 16 16 15 16 14 12 15 15 13 9 7 7 8 6 5 5 5 5 5 5
39 35 32 29 25 23 25 25 23 22 23 23 20 17 15 13 14 16 12 13 14 15 17 17 17 17 15 13 12 15 14 13 11 9 8 9 7 6 6 4 4 3 3

GFSMW_850_spd_228.txt.gz
Wind_Speed
28 32 34 38 41 39 37 39 37 34 33 31 28 27 27 28 24 23 20 20 18 20 20 19 19 21 21 20 20 20 21 22 22 23 25 27 25 27 31 29 31 30 30
30 35 34 40 45 43 42 42 40 40 39 35 32 30 27 25 23 21 22 23 23 24 23 23 22 24 23 23 21 22 22 22 21 19 22 22 23 25 24 23 23 27 28
30 40 39 40 48 48 48 45 43 42 42 39 36 33 27 23 23 25 25 24 22 23 24 24 23 23 22 21 21 23 22 19 21 18 16 8 9 16 22 18 23 25 26
31 39 42 46 50 51 46 41 41 37 39 38 37 36 31 31 26 26 26 25 24 24 25 24 24 22 21 23 24 21 21 23 20 18 21 18 18 14 15 19 23 26 30
31 41 46 47 48 46 42 43 43 38 39 41 38 35 29 28 26 27 23 22 20 21 20 20 18 18 16 15 15 14 14 16 15 16 19 22 20 20 15 21 17 23 26
32 39 44 50 49 45 43 43 41 39 39 40 37 35 32 29 28 25 23 20 18 16 16 15 14 13 13 12 13 14 15 14 15 15 18 20 21 19 21 22 25 26 29
36 40 43 51 48 45 43 41 40 41 39 37 35 35 33 29 25 24 21 19 17 16 15 14 12 11 12 13 13 14 15 16 17 19 20 20 21 21 22 27 30 28 34
38 43 45 50 49 46 46 44 41 38 36 35 33 32 29 25 23 22 22 20 18 16 13 12 11 12 13 14 14 15 15 16 17 18 19 20 20 21 22 24 26 33 32
43 45 47 49 50 48 46 44 39 39 38 34 33 29 28 28 27 24 21 18 16 13 12 12 12 11 12 13 13 13 14 16 16 16 17 17 20 21 23 25 25 24 19
40 44 49 51 48 48 45 42 41 39 37 34 32 30 30 28 25 22 19 16 13 11 11 11 10 10 11 12 13 14 16 17 17 17 17 18 19 20 21 22 23 23 23
41 45 46 48 48 47 45 43 41 40 37 37 35 32 30 27 23 20 17 14 12 10 9 9 9 10 12 13 15 16 17 16 16 17 17 18 18 19 20 21 20 20 22
37 39 44 48 50 47 46 45 44 40 40 39 36 33 29 25 21 18 14 11 10 9 9 10 11 12 14 15 17 18 14 14 15 15 15 16 16 17 17 17 17 18 19
31 36 40 47 51 51 50 47 44 42 41 38 36 33 30 26 21 17 13 11 10 9 10 11 12 13 15 18 17 13 13 13 13 12 12 12 12 13 14 15 16 18 20
37 39 41 45 53 54 51 49 45 42 41 38 34 30 26 22 18 15 12 10 9 9 10 12 13 15 15 12 10 9 9 9 9 10 10 10 11 13 15 16 18 19 21
33 41 44 47 55 55 51 48 45 42 40 36 31 28 24 19 15 12 10 9 10 10 10 12 13 10 9 8 6 6 7 8 8 8 8 9 11 14 17 19 20 20 22
40 41 42 47 56 58 53 48 45 43 40 33 30 25 20 17 14 12 10 9 8 8 8 8 4 4 5 4 3 4 5 6 7 8 9 11 11 12 14 16 17 18 19
38 40 45 52 61 59 55 52 48 42 35 33 27 24 20 17 13 12 10 9 10 9 6 3 2 2 3 2 2 3 5 6 7 9 10 10 11 12 12 12 13 14 17
40 42 44 48 56 57 57 54 46 41 37 31 28 24 20 16 13 10 12 14 12 10 7 5 2 1 2 3 4 5 6 6 8 9 10 11 12 12 11 13 14 14 14
46 46 47 52 58 62 59 52 47 42 39 37 31 26 21 16 15 15 14 12 9 8 8 7 5 2 3 3 4 6 7 8 8 8 9 11 11 11 13 12 11 11 12
49 47 46 51 58 59 57 53 51 47 43 39 32 25 21 19 15 14 13 10 7 6 8 6 4 4 6 8 9 7 9 9 8 7 8 9 10 9 9 10 11 10 12
47 45 50 59 67 63 60 55 53 48 44 36 29 26 22 17 14 15 13 10 9 7 4 3 3 4 3 3 8 9 12 13 11 8 6 6 7 7 9 9 9 11 13
42 48 54 56 58 63 61 58 54 49 42 35 31 28 23 20 17 13 12 12 11 11 10 8 7 7 6 3 5 9 10 12 13 9 5 5 5 6 7 8 8 8 9
49 52 55 52 59 64 62 62 57 49 42 37 33 29 24 21 16 13 11 12 11 13 14 13 11 9 6 7 6 12 11 12 13 10 6 5 5 4 5 6 7 6 3
51 52 49 49 55 62 62 60 54 47 42 38 35 30 26 22 18 14 10 9 9 11 12 13 14 12 10 9 10 12 12 13 13 10 7 5 4 4 3 3 5 5 4
52 54 56 57 61 61 60 58 53 48 42 37 34 30 27 22 18 12 8 7 6 7 9 10 13 14 12 9 11 13 14 13 14 12 9 7 6 5 2 2 3 4 4
49 49 50 52 57 57 61 56 52 45 39 37 34 32 28 23 19 15 12 10 9 8 8 12 15 15 14 13 15 14 14 14 15 13 10 8 8 6 3 1 2 1 3

GFSMW_850_spd_231.txt.gz
Wind_Speed
24 28 30 32 34 36 37 39 38 36 33 31 30 31 31 30 27 25 22 20 18 18 16 13 13 14 15 17 18 18 19 21 19 21 23 23 22 24 22 24 25 26 22
29 28 28 34 40 38 40 39 40 39 36 34 32 32 31 31 28 26 25 23 20 18 16 17 17 20 21 21 22 23 23 22 21 18 19 19 17 19 14 16 15 17 17
35 35 36 38 43 43 42 44 42 42 39 36 35 34 32 30 30 30 29 23 20 21 21 21 21 23 22 22 22 21 20 21 18 14 13 8 8 14 16 19 18 18 20
39 39 37 36 45 45 42 44 47 44 40 39 39 38 36 35 33 32 27 23 21 21 19 18 19 19 19 19 19 19 17 19 17 18 18 17 15 12 12 12 13 18 23
37 36 38 33 46 44 43 46 49 45 41 40 39 40 39 36 32 27 23 21 22 20 21 18 18 18 17 16 18 15 13 13 15 16 15 13 15 13 12 16 16 16 17
38 34 31 31 42 46 45 44 46 43 41 40 38 42 43 38 30 27 24 22 21 19 19 17 18 15 14 12 10 11 11 12 13 13 14 14 13 14 12 14 16 18 20
40 40 38 36 41 45 45 44 42 40 40 38 40 42 41 36 30 27 25 25 19 18 17 16 15 14 12 11 11 11 11 11 12 13 14 15 17 18 19 19 16 13 15
39 41 37 40 39 42 44 42 40 40 39 38 39 40 37 31 27 25 24 20 17 19 18 16 14 12 11 10 10 10 10 11 11 12 14 15 17 18 19 20 21 21 14
35 35 38 41 41 42 44 44 42 41 39 37 31 30 31 31 28 26 21 22 22 21 18 15 13 11 9 8 8 8 9 10 11 12 13 14 16 18 19 20 20 18 11
30 33 35 38 40 41 45 44 43 42 37 29 30 34 34 32 30 26 27 26 23 20 17 15 12 10 8 8 8 9 10 11 12 13 13 15 16 17 18 19 19 19 16
27 30 33 35 38 40 45 46 44 37 30 31 35 36 34 31 28 29 27 25 21 18 16 15 12 10 9 9 9 10 11 13 13 12 13 14 15 16 17 18 18 18 19
35 32 32 35 37 40 45 43 40 35 36 37 38 36 34 32 32 30 27 24 21 18 15 13 11 9 8 9 10 11 12 11 11 12 13 13 13 14 15 15 16 17 20
24 25 28 31 32 37 41 41 39 39 40 42 39 38 37 35 33 30 26 23 21 19 16 12 10 9 10 11 12 11 10 9 9 9 10 11 11 12 12 12 14 14 16
18 21 26 30 33 36 41 43 43 45 44 41 42 41 38 35 31 27 23 22 19 16 14 11 10 10 11 12 10 8 7 7 8 8 9 9 9 9 9 10 11 13 14
19 26 29 30 32 36 43 46 47 47 46 46 43 40 36 32 28 26 23 20 18 15 12 11 11 12 11 9 7 7 6 7 7 7 7 6 7 9 9 9 10 12 15
21 22 25 28 34 40 46 49 50 51 49 47 44 39 35 32 28 25 23 20 18 15 13 11 10 9 7 7 7 7 7 7 6 4 4 4 6 7 8 10 12 13 13
25 28 33 37 38 43 51 54 55 52 49 47 43 40 37 32 28 26 24 21 17 15 13 11 9 8 7 7 8 8 6 4 4 3 3 3 4 6 7 9 10 11 12
29 29 33 35 37 42 52 54 54 51 50 46 43 39 36 33 31 27 23 19 17 16 13 11 10 9 9 10 8 5 4 3 3 2 2 3 5 6 7 8 8 9 12
41 35 34 36 40 44 54 58 57 55 51 46 43 43 38 34 30 26 22 21 19 15 14 13 12 11 9 6 3 2 1 2 1 1 1 3 5 7 8 7 8 9 11
43 49 45 38 42 46 54 61 59 56 53 50 48 42 37 33 30 25 23 20 16 17 17 16 14 12 9 8 7 4 3 3 2 2 3 4 5 6 7 8 7 7 8
45 43 43 45 47 50 56 62 62 59 55 52 46 39 36 31 28 25 22 22 22 20 18 17 17 14 9 8 6 5 3 5 5 3 4 4 4 4 5 6 7 7 6
38 44 46 47 49 53 59 66 65 63 58 51 42 43 35 33 29 26 27 25 22 20 19 18 17 16 13 9 6 4 2 3 6 6 4 3 3 3 4 5 6 6 4
41 43 49 47 51 56 60 63 64 65 56 47 45 39 37 34 31 30 28 26 24 22 21 19 18 17 16 14 11 6 2 3 7 6 5 5 4 3 4 5 5 5 3
47 47 42 46 50 55 56 60 69 63 57 49 45 44 41 36 32 28 25 25 24 24 22 22 21 20 19 16 13 10 7 6 8 9 5 5 5 5 5 5 4 4 3
44 49 51 51 54 57 54 58 67 62 56 44 49 46 41 37 33 29 25 22 18 16 17 18 16 20 19 15 13 12 8 8 9 9 7 7 7 7 7 7 6 5 4
45 51 52 51 51 55 55 65 67 68 51 50 53 47 42 37 35 31 28 22 17 17 16 15 13 12 12 13 14 14 11 11 12 11 8 7 9 10 9 8 7 6 3

GFSMW_850_spd_234.txt.gz
Wind_Speed
27 28 23 23 25 27 30 32 35 37 38 37 32 30 32 30 28 27 28 25 24 23 23 19 19 18 15 14 14 13 13 13 10 11 12 13 12 13 13 13 12 12 12
27 27 27 25 30 30 32 32 35 35 39 38 35 27 25 25 25 27 28 27 25 22 22 21 19 19 16 18 19 18 16 17 19 14 15 12 16 16 8 5 6 7 7
29 30 31 27 31 32 34 36 37 39 41 37 34 26 21 22 24 27 30 29 26 24 23 24 23 21 21 21 22 20 19 20 19 17 11 4 10 7 11 9 8 10 9
38 38 38 37 34 42 39 36 36 37 39 38 34 35 33 32 31 31 30 30 29 27 26 26 25 23 23 23 23 21 19 17 15 13 12 14 10 8 10 8 11 14 12
43 42 42 42 39 42 44 39 37 37 37 41 41 37 31 25 22 30 33 32 30 28 27 25 22 20 18 15 19 15 11 12 7 7 8 6 9 10 10 14 12 13 12
38 38 37 36 34 32 41 39 37 38 38 38 41 37 37 26 32 35 36 35 32 28 26 22 18 18 17 18 16 14 10 8 6 4 4 5 6 7 11 13 14 16 15
37 37 37 33 31 30 33 39 38 38 38 37 38 37 36 32 31 34 36 34 33 28 23 21 20 19 18 16 14 12 10 9 9 9 10 10 7 11 10 10 12 13 14
33 36 37 37 31 28 30 33 37 37 36 41 37 37 35 40 29 31 34 30 29 24 23 22 21 19 17 15 13 11 11 11 11 10 10 11 12 12 12 9 9 12 13
31 30 31 32 33 30 32 36 35 35 38 42 41 38 40 35 32 36 31 27 25 26 24 23 22 19 16 15 13 11 10 9 9 10 10 11 12 13 13 12 11 9 11
23 21 23 26 29 28 28 30 32 35 40 42 41 41 41 37 33 31 31 29 27 26 26 24 21 19 16 13 11 9 8 9 10 11 11 12 12 12 13 14 13 12 9
30 20 16 19 21 20 23 28 35 39 40 39 36 35 35 35 34 34 32 29 26 28 26 24 20 17 15 12 9 8 9 10 11 11 11 11 12 13 13 14 14 12 12
17 15 12 14 17 19 22 29 36 39 37 33 35 35 36 38 37 36 31 27 30 29 26 23 19 16 14 11 10 10 11 11 11 10 10 11 12 12 12 12 12 11 12
5 10 13 16 19 21 23 26 34 36 35 37 36 37 39 38 38 34 32 34 33 30 26 23 20 17 14 12 11 11 11 9 8 9 9 10 10 10 10 10 10 11 12
7 9 11 13 15 19 23 25 31 36 38 38 39 39 41 41 38 36 36 34 30 29 26 22 19 17 13 12 12 10 9 9 9 9 9 8 8 8 8 10 11 12 13
5 8 10 12 15 19 22 23 30 35 38 42 42 45 43 40 39 38 36 34 31 27 24 20 18 16 14 13 11 11 11 10 9 7 6 7 8 8 8 9 10 11 13
8 9 12 14 18 20 23 25 36 40 43 45 46 46 45 43 41 39 36 34 30 26 23 21 18 15 14 13 12 12 11 10 7 6 7 8 8 7 8 8 8 10 10
15 15 15 16 18 21 24 28 37 43 47 47 49 48 47 44 42 40 36 32 30 26 24 22 18 16 14 13 13 11 10 8 9 10 9 8 7 6 6 7 8 9 9
23 16 17 19 21 22 25 28 34 46 49 49 44 47 46 44 41 38 36 33 29 26 25 22 19 17 15 14 13 12 11 12 12 11 9 7 5 5 5 5 5 7 9
31 25 23 22 21 25 28 31 34 42 49 45 47 48 47 45 43 40 35 30 30 28 25 22 19 18 16 15 14 13 14 13 11 10 8 7 6 4 2 4 4 6 8
37 31 27 25 25 27 30 34 38 41 47 52 53 52 50 46 44 40 34 35 30 28 26 23 20 18 18 17 16 16 13 11 10 9 9 9 5 3 3 2 3 4 6
31 28 31 30 30 32 36 40 43 50 55 55 54 53 50 46 43 36 36 34 32 30 27 24 23 22 19 17 15 15 11 9 7 7 8 7 6 4 3 3 3 4 5
28 28 27 28 30 34 40 42 44 47 47 57 56 53 51 47 41 37 37 35 34 32 29 27 28 25 21 18 15 12 10 8 6 4 6 7 6 6 5 4 4 3 4
26 30 35 30 30 36 43 44 45 43 47 56 58 54 50 45 39 38 41 38 34 33 33 32 30 28 25 21 17 15 12 10 8 5 3 6 7 7 6 5 3 3 3
24 28 33 32 33 40 45 41 45 50 48 58 60 56 53 44 42 42 40 39 37 34 31 30 30 29 27 24 22 20 18 14 10 7 5 7 8 8 7 6 4 4 3
30 26 31 37 38 45 46 41 45 56 53 60 62 58 50 48 43 39 39 35 31 28 28 29 28 29 28 26 23 21 19 14 10 9 8 9 10 10 9 8 7 6 5
34 31 32 38 38 43 45 45 53 59 58 62 66 61 56 47 38 42 38 31 25 22 22 21 21 21 19 20 22 22 20 16 13 13 11 10 11 11 11 10 9 8 6

GFSMW_850_spd_237.txt.gz
Wind_Speed
35 32 30 29 27 27 30 32 31 31 31 33 34 31 29 25 24 22 23 25 26 27 27 21 20 18 18 18 15 14 14 16 15 10 10 12 11 12 12 11 13 10 8
31 32 33 31 31 31 33 34 34 34 35 32 32 30 28 25 24 24 25 27 28 27 27 25 21 21 19 19 19 19 14 12 11 9 8 10 8 13 7 4 4 10 7
30 30 32 34 34 35 36 39 39 36 38 35 30 27 24 24 25 27 26 29 28 30 26 26 23 22 22 23 20 17 15 14 15 13 8 5 8 5 7 8 5 10 6
38 35 36 37 36 40 41 43 41 38 39 39 34 35 35 33 33 31 29 28 30 29 28 25 25 24 22 19 17 17 18 18 19 15 14 15 8 6 8 7 6 10 11
44 42 42 42 40 38 42 44 43 41 40 41 40 41 37 33 28 27 28 30 30 28 25 27 27 26 24 23 21 20 19 17 16 9 8 6 6 8 9 13 10 8 11
46 45 46 46 45 41 44 43 45 43 44 44 45 41 43 35 32 31 31 33 32 35 32 31 29 26 24 19 18 15 12 6 8 8 9 8 7 7 9 11 12 12 13
37 38 39 43 44 44 45 46 46 45 46 46 47 43 42 37 36 34 41 40 38 37 32 30 29 25 21 20 20 16 16 13 10 11 7 6 5 8 8 7 10 11 11
32 37 38 39 39 38 36 45 42 46 46 48 49 48 43 40 34 41 40 37 40 37 34 30 27 26 24 21 18 16 15 14 13 11 9 7 8 8 8 6 6 10 11
30 29 34 34 37 38 32 36 38 44 45 48 47 47 43 39 38 41 37 37 37 37 33 31 31 26 23 21 19 17 15 13 11 9 10 11 10 10 10 9 8 5 7
29 28 28 30 31 34 32 32 33 37 41 44 44 46 44 40 41 41 36 35 39 39 35 32 28 24 24 21 19 17 14 13 12 12 10 9 9 9 7 6 5 3 6
19 23 17 14 20 26 32 31 30 32 37 41 44 43 44 43 41 38 38 39 40 38 34 30 27 27 24 21 19 16 14 13 11 10 9 9 6 6 5 5 6 6 7
15 18 21 15 15 20 22 24 28 31 37 43 47 46 43 46 45 44 43 42 40 34 32 30 29 27 24 22 20 17 15 12 10 9 8 8 7 6 5 5 5 5 5
8 12 11 14 17 20 23 28 33 39 42 45 44 47 50 48 47 44 46 42 38 35 33 32 30 27 25 23 19 15 12 11 11 10 9 7 5 4 4 4 2 3 4
8 9 11 13 16 19 24 28 34 39 40 42 45 49 44 47 44 47 45 40 38 36 35 33 30 27 24 20 17 14 13 12 12 10 7 6 5 6 5 4 5 7 8
4 7 12 13 16 18 22 21 27 37 39 38 43 47 46 48 48 46 43 40 38 38 35 33 30 25 22 19 16 13 12 12 10 8 8 7 6 5 5 6 8 8 8
3 5 7 12 14 17 20 21 25 36 38 42 45 45 45 49 48 44 43 41 40 37 34 31 28 25 22 18 14 13 13 12 11 10 9 8 6 6 6 7 7 7 8
8 7 9 8 10 15 18 21 23 30 37 42 46 47 50 50 50 47 43 41 39 36 33 30 26 25 20 16 15 15 14 12 11 11 8 7 7 8 8 7 6 7 7
17 15 13 11 12 12 16 19 22 24 39 43 45 47 50 50 49 45 43 42 39 36 33 30 27 23 17 16 16 15 15 14 13 10 9 8 9 9 7 6 7 7 6
20 13 12 10 12 17 18 21 22 25 36 43 47 49 52 52 48 45 42 41 40 37 33 29 24 19 18 18 18 18 17 15 13 12 11 12 11 8 6 7 6 6 5
32 23 22 19 17 17 22 26 26 28 41 44 47 50 48 49 49 46 45 42 39 34 31 24 20 22 20 21 21 20 18 16 15 15 15 14 11 7 8 8 4 1 6
13 21 25 24 27 23 24 29 31 35 39 47 47 47 47 48 48 49 46 43 38 33 28 25 27 24 23 25 24 22 19 18 17 17 16 13 10 10 10 7 6 6 5
19 22 22 27 25 25 26 28 32 34 39 43 48 47 47 47 51 49 46 42 37 33 30 30 28 26 27 25 24 21 21 19 18 16 13 11 11 11 9 8 5 5 5
22 20 20 24 25 23 26 30 32 33 37 41 46 47 48 50 52 50 48 42 36 35 34 35 32 31 29 26 22 22 19 18 15 12 10 10 11 11 9 8 7 6 6
23 24 22 22 27 29 29 32 33 36 41 44 45 50 54 53 52 50 49 44 42 37 38 37 36 34 32 31 28 25 20 17 12 12 10 10 11 11 10 10 9 8 8
33 31 27 26 25 28 29 30 35 39 43 45 47 49 56 57 54 53 49 44 39 38 41 35 32 35 35 34 29 24 22 17 13 13 12 12 12 12 12 13 12 10 9
33 32 32 31 28 24 29 33 39 40 47 48 46 49 56 55 56 55 47 40 33 32 30 24 27 30 29 26 25 22 19 16 16 16 16 13 12 12 14 14 12 11 10